Volver al catálogo

STARLINK-35310

ActivoComunicacionesVLEO
NORAD 66183·PAYLOAD·🇺🇸 United States

Lanzado Oct 26, 2025 desde Cape Canaveral Space Force Station

Loading…

Próximos Pases (próximas 24 horas)

TLE

ActualizadoSource: CelesTrak SupGP

Época: Sep 14, 2026, 14:15 UTC

1 66183C 25243G   26257.59423611 -.00008717  00000+0 -25755-3 0  2571
2 66183  53.1580  84.9990 0001175  88.0062 341.0032 15.34394189    16

Sigue STARLINK-35310 en tiempo real con AllMySat

Download on the App Store